Location: *
(46.1833°N, 22.7667°E)
Time: 23:19:20
(UTC+00:00)

Cosmos 2181 Rocket - Pass Details

Date: 17 September 2019
Orbit: 953 x 1014 km, 82.9° (Epoch: 21 October)

Event Time Altitude Azimuth Distance (km) Brightness Sun altitude
Rises 17:57:33 0° 164° (SSE) 3,644 6.7 -14.4°
Reaches altitude 10° 18:00:09 10° 158° (SSE) 2,709 5.9 -14.8°
Maximum altitude 18:05:56 43° 89° (E) 1,351 4.3 -15.8°
Drops below altitude 10° 18:11:51 10° 20° (NNE) 2,767 6.4 -16.7°
Sets 18:14:31 0° 14° (NNE) 3,730 7.2 -17.2°
